Home   Weather   Bodø   Past weeks

Flag for Norway Past Weather in Bodø, Norway — Yesterday and Last 2 Weeks

45 °F

Scattered clouds.

Feels Like: 38 °F
Forecast: 40 / 45 °F
Wind: 14 mph from East

Location: Bodo Vi

Current Time: Oct 25, 2016 at 2:06:22 PM

Latest Report: Oct 25, 2016 at 1:20 PM

Visibility: N/A

Pressure: 30.24 "Hg

Humidity: 61%

Dew Point: 32 °F

Location of BodøLocation

Past Weather in Bodø — Graph


Bodø Temperature Yesterday

Maximum temperature yesterday: 46 °F (at 2:50 PM)
Minimum temperature yesterday: 37 °F (at 6:50 AM)
Average temperature yesterday: 42 °F

High & Low Weather Summary for the Past Weeks

High48 °F (Oct 13, 1:20 PM)100% (Oct 12, 10:20 AM)30.63 "Hg (Oct 12, 10:20 AM)
Low36 °F (Oct 16, 4:50 AM)49% (Oct 23, 1:20 PM)30.07 "Hg (Oct 18, 3:50 AM)
Average43 °F73%30.40 "Hg
* Reported Oct 10 12:20 PM — Oct 25 12:50 PM, Bodø, Weather by CustomWeather, © 2016

Note: Actual official high and low records may vary slightly from our data, if they occured in-between our weather recording intervals... More about our weather records


Bodø Weather History for the Previous 24 Hours

Scroll right to see more
Time TempWeatherWind HumidityBarometerVisibility
12:50 PM
Tue, Oct 25
46 °FScattered clouds.15 mph62%30.24 "HgN/A
12:20 PM45 °FScattered clouds.8 mph66%30.27 "HgN/A
11:50 AM45 °FScattered clouds.8 mph66%30.27 "HgN/A
11:20 AM45 °FScattered clouds.8 mph66%30.27 "HgN/A
10:50 AM45 °FScattered clouds.12 mph61%30.27 "HgN/A
10:20 AM43 °FScattered clouds.9 mph66%30.27 "HgN/A
9:50 AM43 °FScattered clouds.10 mph66%30.27 "HgN/A
9:20 AM43 °FSunny.10 mph66%30.27 "Hg10 mi
8:50 AM45 °FSunny.8 mph61%30.30 "Hg10 mi
8:20 AM45 °FPassing clouds.7 mph66%30.30 "HgN/A
7:50 AM45 °FPassing clouds.8 mph66%30.30 "HgN/A
7:20 AM45 °FClear.8 mph66%30.30 "Hg10 mi
6:50 AM45 °FClear.10 mph66%30.30 "Hg10 mi
6:20 AM45 °FClear.8 mph71%30.30 "Hg10 mi
5:50 AM45 °FClear.9 mph66%30.30 "Hg10 mi
5:20 AM45 °FClear.16 mph66%30.33 "Hg10 mi
4:50 AM45 °FClear.15 mph66%30.33 "Hg10 mi
3:50 AM43 °FClear.13 mph71%30.33 "Hg10 mi
2:50 AM43 °FClear.13 mph66%30.36 "Hg10 mi
1:50 AM43 °FClear.14 mph66%30.36 "Hg10 mi
12:50 AM43 °FClear.16 mph71%30.36 "Hg10 mi
11:50 PM
Mon, Oct 24
43 °FClear.15 mph71%30.39 "Hg10 mi
11:20 PM43 °FClear.14 mph71%30.39 "Hg10 mi
10:50 PM43 °FClear.14 mph66%30.39 "Hg10 mi
10:20 PM41 °FClear.10 mph70%30.39 "Hg10 mi
9:50 PM43 °FClear.10 mph66%30.39 "Hg10 mi
9:20 PM41 °FClear.10 mph70%30.39 "Hg10 mi
8:50 PM43 °FClear.10 mph71%30.42 "Hg10 mi
8:20 PM43 °FClear.12 mph66%30.42 "Hg10 mi
7:50 PM43 °FClear.12 mph66%30.42 "Hg10 mi
7:20 PM41 °FClear.10 mph70%30.42 "Hg10 mi
6:50 PM39 °FClear.9 mph70%30.42 "Hg10 mi
6:20 PM41 °FPassing clouds.7 mph61%30.42 "HgN/A
5:50 PM43 °FPassing clouds.8 mph61%30.42 "HgN/A
5:20 PM43 °FPassing clouds.8 mph61%30.42 "HgN/A
4:50 PM45 °FScattered clouds.9 mph53%30.45 "HgN/A
4:20 PM45 °FScattered clouds.12 mph53%30.45 "HgN/A
3:50 PM45 °FScattered clouds.15 mph61%30.45 "HgN/A
3:20 PM45 °FScattered clouds.16 mph57%30.45 "HgN/A
2:50 PM46 °FPartly sunny.9 mph53%30.45 "HgN/A
2:20 PM45 °FPartly sunny.8 mph61%30.45 "HgN/A
Weather by CustomWeather, © 2016

See weather overviewHow to use our weather pages